PERSEUS-M2

Last updated on Sun Apr 12 2026 00:03:55 GMT+0000 (Coordinated Universal Time)

1 40037U 14033AD 26101.48494049 .00002163 00000+0 20156-3 0 9995 2 40037 97.9914 50.7019 0012378 152.6520 207.5354 14.95312442640819
UTC large
Height (km)
Speed (km/s)
/
Latitude / Longitude
Inclination (degrees)
Orbital Period (minutes)
Azimuth
Elevation
Range (km)
Doppler Factor

Next 0 passes for location: London (51.5072 / 0.1276)

Sorry there are no passes over London.
PERSEUS-M2